{"data":{"norad_id":62012,"intl_designator":"2024-213E","name":"STARLINK-11363 [DTC]","alt_names":[],"object_type":"PAYLOAD","status":"ACTIVE","operator":null,"country":"US","launch_date":"2024-11-18","launch_site_code":"AFWTR","launch_vehicle":null,"mission":null,"orbit_class":"UNKNOWN","rcs_meters":null,"size_class":null,"mass_kg":null,"dimensions":null,"purposes":["comms"],"wikipedia_slug":null,"has_3d_model":false,"image_url":null,"decayed_at":null,"tle_current":{"epoch":"2026-09-21T23:13:10.928640Z","epoch_age_seconds":58664,"freshness":"FRESH","line1":"1 62012U 24213E   26264.96748760  .00130823  00000+0  10674-2 0  9996","line2":"2 62012  53.1571 153.6236 0000993  91.3114 268.8018 15.69716605105747","mean_motion":15.69716605,"eccentricity":9.93e-5,"inclination_deg":53.1571,"raan_deg":153.6236,"arg_perigee_deg":91.3114,"mean_anomaly_deg":268.8018,"bstar":0.0010674,"rev_number":10574,"period_min":91.736304210148,"perigee_km":359.03878151076,"apogee_km":360.37691749787,"semimajor_km":6737.8448495043,"source":"CELESTRAK","updated_at":"2026-09-22T09:00:49.482869Z"}}}